User: anonymous   Login
Location: Unspecified
(0.0000°N, 0.0000°E)
Time: 14:40:50
(UTC+00:00)
Language:

Tiangong 2 - Orbit

View from above orbital plane
View from above orbital plane
View from above satellite
View from above satellite

Ground track
Ground track

The orbit data is extracted from the following two-line orbital elements,

1 41765U 16057A   19108.91381944  .00004521  00000-0  56186-4 0  9992
2 41765  42.7848 320.4303 0008008 225.2441 330.2803 15.61271746147774
Epoch (UTC): 18 April 2019 21:55:54
Eccentricity: 0.0008008
inclination: 42.7848°
perigee height: 378 km
apogee height: 389 km
right ascension of ascending node: 320.4303°
argument of perigee: 225.2441°
revolutions per day: 15.61271746
mean anomaly at epoch: 330.2803°
orbit number at epoch: 14777

The dashed part of the orbit path shows where the satellite is in the earth's shadow,  

DLR